Location: Caracas
(10.4880°N, 66.8792°W)
Time: 05:25:04
(UTC+00:00)

Atlas Centaur 2 - Pass Details

Date: 03 August 2024
Orbit: 457 x 1272 km, 30.4° (Epoch: 08 September)

Event Time Altitude Azimuth Distance (km) Brightness Sun altitude
Rises 23:09:21 0° 258° (WSW) 2,476 5.8 -5.3°
Reaches altitude 10° 23:11:32 10° 267° (W) 1,640 5.1 -5.8°
Maximum altitude 23:14:57 35° 335° (NNW) 851 2.8 -6.6°
Drops below altitude 10° 23:18:52 10° 41° (NE) 1,892 3.8 -7.5°
Sets 23:21:34 0° 50° (NE) 2,926 4.7 -8.1°
